This demonstration page uses our WeatherBlox Daily Observations layout. Learn more.

Left ArrowRight Arrow

Hourly Observations for January 14, 2018

Temp ( °F °C ) Dew Point ( °F °C ) Humidity (%) Winds ( mph kmh ) Pressure ( in mb ) Visibility ( mi km ) Precip ( " mm )
12:53 am 00:53 Clear 32 0 16 -8.9 52 52 SE 7 11 30.30 1026 10 16 0.00 0.00
1:53 am 01:53 Clear 30 -1.1 16 -8.9 56 56 SE 8 13 30.29 1026 10 16 0.00 0.00
2:53 am 02:53 Clear 31 -0.6 16 -8.9 54 54 SE 8 13 30.27 1025 10 16 0.00 0.00
3:53 am 03:53 Clear 31 -0.6 16 -8.9 54 54 ESE 6 9 30.26 1025 10 16 0.00 0.00
4:53 am 04:53 Clear 30 -1.1 16 -8.9 56 56 SE 6 9 30.26 1025 10 16 0.00 0.00
5:53 am 05:53 Clear 24 -4.4 14 -10 65 65 NNE 5 7 30.29 1026 10 16 0.00 0.00
6:53 am 06:53 Clear 21 -6.1 13 -10.6 71 71 NNE 5 7 30.32 1027 10 16 0.00 0.00
7:53 am 07:53 Clear 21 -6.1 13 -10.6 71 71 NNW 6 9 30.35 1028 10 16 0.00 0.00
8:53 am 08:53 Sunny 29 -1.7 15 -9.4 56 56 N 6 9 30.37 1028 10 16 0.00 0.00
9:53 am 09:53 Sunny 39 3.9 17 -8.3 41 41 Calm 30.37 1028 10 16 0.00 0.00
10:53 am 10:53 Sunny 45 7.2 18 -7.8 34 34 Calm 30.37 1029 10 16 0.00 0.00
11:53 am 11:53 Sunny 49 9.4 19 -7.2 31 31 NW 5 7 30.36 1028 10 16 0.00 0.00
12:53 pm 12:53 Sunny 52 11.1 19 -7.2 27 27 NNW 5 7 30.33 1027 10 16 0.00 0.00
1:53 pm 13:53 Sunny 56 13.3 19 -7.2 24 24 Calm 30.29 1026 10 16 0.00 0.00
2:53 pm 14:53 Sunny 58 14.4 18 -7.8 21 21 Calm 30.26 1025 10 16 0.00 0.00
3:53 pm 15:53 Sunny 60 15.6 18 -7.8 19 19 VRB 3 6 30.26 1025 10 16 0.00 0.00
4:53 pm 16:53 Sunny 60 15.6 18 -7.8 19 19 Calm 30.24 1024 10 16 0.00 0.00
5:53 pm 17:53 Sunny 55 12.8 18 -7.8 23 23 S 3 6 30.26 1025 10 16 0.00 0.00
6:53 pm 18:53 Clear 49 9.4 18 -7.8 29 29 SSW 5 7 30.27 1025 10 16 0.00 0.00
7:53 pm 19:53 Clear 45 7.2 18 -7.8 34 34 Calm 30.28 1025 10 16 0.00 0.00
8:53 pm 20:53 Clear 42 5.6 18 -7.8 38 38 SE 9 15 30.27 1025 10 16 0.00 0.00
9:53 pm 21:53 Clear 40 4.4 19 -7.2 43 43 E 6 9 30.26 1025 10 16 0.00 0.00
10:53 pm 22:53 Clear 37 2.8 18 -7.8 46 46 E 3 6 30.27 1025 10 16 0.00 0.00
11:53 pm 23:53 Clear 32 0 16 -8.9 52 52 NE 5 7 30.25 1024 10 16 0.00 0.00

Powered by AerisWeather